GW0410 Weather Reports


Display with metric or nautical units.
time (UTC)temp
F
wind
direction
speed
MPH
gust
MPH
rain 1hr
in
rain 24hr
in
rain mn
in
humidity
%
barometer
mb
20260503034020 36 0.0 0.0 0.00 0.00 0.00 92 1019.3
20260503033023 36 0.0 0.0 0.00 0.00 0.00 91 1019.0
20260503032042 37 0.0 0.0 0.00 0.00 0.00 91 1019.0
20260503031024 37 0.0 0.0 0.00 0.00 0.00 91 1019.1
20260503030023 37 0.0 0.0 0.00 0.00 0.00 91 1019.1
20260503025021 37 0.0 0.0 0.00 0.00 0.00 91 1019.1
20260503024020 37 0.0 0.0 0.00 0.00 0.00 90 1019.1
20260503023027 37 0.0 0.0 0.00 0.00 0.00 90 1019.1
20260503022050 37 0.0 0.0 0.00 0.00 0.00 90 1019.1
20260503021034 37 0.0 0.0 0.00 0.00 0.00 89 1019.1
20260503020024 37 0.0 0.0 0.00 0.00 0.00 89 1019.1
20260503015019 38 0.0 0.0 0.00 0.00 0.00 89 1019.2
20260503014034 38 0.0 0.0 0.00 0.00 0.00 89 1019.2
20260503013022 38 0.0 0.0 0.00 0.00 0.00 89 1019.1
20260503012040 38 0.0 0.0 0.00 0.00 0.00 88 1019.1
20260503011051 38 0.0 0.0 0.00 0.00 0.00 88 1019.1
20260503010022 38 0.0 0.0 0.00 0.00 0.00 87 1019.1
20260503005020 39 0.0 0.0 0.00 0.00 0.00 87 1019.1
20260503004020 39 0.0 0.0 0.00 0.00 0.00 87 1019.1
20260503003020 39 0.0 0.0 0.00 0.00 0.00 86 1019.1
20260503002019 40 0.0 0.0 0.00 0.00 0.00 86 1019.1
20260503001021 40 0.0 0.0 0.00 0.00 0.00 86 1018.7
20260503000022 40 0.0 0.0 0.00 0.00 0.00 86 1019.1
20260502235020 40 0.0 0.0 0.00 0.00 0.00 85 1019.1
20260502234024 40 0.0 0.0 0.00 0.00 0.00 85 1019.1
20260502233024 41 0.0 0.0 0.00 0.00 0.00 84 1019.1
20260502232026 41 0.0 0.0 0.00 0.00 0.00 83 1019.1
20260502231023 41 0.0 0.0 0.00 0.00 0.00 83 1019.1
20260502230022 42 0.0 0.0 0.00 0.00 0.00 82 1019.1
20260502225022 42 0.0 0.0 0.00 0.00 0.00 82 1019.1
20260502224035 42 0.0 0.0 0.00 0.00 0.00 81 1019.5
20260502223046 42 0.0 0.0 0.00 0.00 0.00 80 1019.5
20260502222020 43 0.0 0.0 0.00 0.00 0.00 80 1019.5
20260502221021 44 0.0 0.0 0.00 0.00 0.00 80 1019.5
20260502220032 45 0.0 0.0 0.00 0.00 0.00 79 1019.5
20260502215029 45 0.0 0.0 0.00 0.00 0.00 79 1019.5
20260502214033 45 0.0 0.0 0.00 0.00 0.00 78 1019.5
20260502213022 45 0.0 0.0 0.00 0.00 0.00 77 1019.5
20260502212053 46 0.0 0.0 0.00 0.00 0.00 76 1019.5
20260502211022 47 0.0 0.0 0.00 0.00 0.00 75 1019.5
20260502210023 47 0.0 0.0 0.00 0.00 0.00 73 1019.6
20260502205042 48 0.0 0.0 0.00 0.00 0.00 73 1019.7
20260502204023 48 0.0 0.0 0.00 0.00 0.00 72 1020.0
20260502203024 49 0.0 0.0 0.00 0.00 0.00 70 1019.9
20260502202022 50 0.0 0.0 0.00 0.00 0.00 68 1019.9
20260502201026 51 0.0 0.0 0.00 0.00 0.00 67 1020.0
20260502200049 52 0.0 0.0 0.00 0.00 0.00 63 1020.0
20260502195022 53 0.0 0.0 0.00 0.00 0.00 63 1020.0
20260502194019 54 0.0 0.0 0.00 0.00 0.00 61 1020.1
20260502193020 55 0.0 0.0 0.00 0.00 0.00 60 1020.1
20260502192039 56 0.0 0.0 0.00 0.00 0.00 57 1020.1
20260502191059 58 0.0 0.0 0.00 0.00 0.00 55 1020.1
20260502190031 59 0.0 0.0 0.00 0.00 0.00 52 1019.8
20260502185024 59 0.0 0.0 0.00 0.00 0.00 53 1019.8
20260502184024 61 0.0 0.0 0.00 0.00 0.00 52 1019.9
20260502183027 61 0.0 0.0 0.00 0.00 0.00 50 1019.8
20260502182034 62 0.0 0.0 0.00 0.00 0.00 49 1019.8
20260502181039 63 0.0 0.0 0.00 0.00 0.00 49 1019.5
20260502164036 70 68 3.0 4.0 0.00 0.00 0.00 38 1019.6
20260502163114 71 83 3.0 6.0 0.00 0.00 0.00 37 1019.6
20260502162019 71 78 4.0 6.0 0.00 0.00 0.00 37 1019.6
20260502161037 71 90 4.0 6.0 0.00 0.00 0.00 37 1020.0
20260502152035 72 80 3.0 7.0 0.00 0.00 0.00 35 1020.4
20260502151046 73 71 4.0 6.0 0.00 0.00 0.00 34 1020.4
20260502123024 72 89 4.0 6.0 0.00 0.00 0.00 36 1022.5
20260502122019 72 81 3.0 7.0 0.00 0.00 0.00 36 1022.5
20260502121033 72 69 2.0 5.0 0.00 0.00 0.00 36 1022.9
20260502115049 72 84 4.0 7.0 0.00 0.00 0.00 36 1022.9
20260502114038 72 46 2.0 4.0 0.00 0.00 0.00 36 1023.2
20260502113026 71 70 2.0 4.0 0.00 0.00 0.00 35 1023.2
20260502112044 71 82 3.0 6.0 0.00 0.00 0.00 39 1023.2
20260502111042 72 85 2.0 7.0 0.00 0.00 0.00 38 1023.5
20260502110027 71 58 1.0 3.0 0.00 0.00 0.00 36 1023.5
20260502105021 70 83 3.0 5.0 0.00 0.00 0.00 39 1023.5
20260502104021 71 94 2.0 6.0 0.00 0.00 0.00 38 1023.9
20260502103021 70 65 2.0 4.0 0.00 0.00 0.00 41 1023.9
20260502102053 70 73 2.0 3.0 0.00 0.00 0.00 41 1023.9
20260502101026 69 126 3.0 8.0 0.00 0.00 0.00 42 1023.9
20260502100533 70 80 3.0 6.0 0.00 0.00 0.00 42 1024.6
20260502091028 69 83 2.0 4.0 0.00 0.00 0.00 43 1025.0
20260502071051 66 64 0.0 2.0 0.00 0.00 0.00 53 1025.5
20260502070033 65 65 1.0 3.0 0.00 0.00 0.00 54 1025.2
20260502065035 65 116 0.0 2.0 0.00 0.00 0.00 54 1025.3
20260502064027 64 81 0.0 3.0 0.00 0.00 0.00 54 1025.5
20260502063042 64 86 0.0 1.0 0.00 0.00 0.00 55 1025.6
20260502062032 63 80 0.0 1.0 0.00 0.00 0.00 56 1025.6
20260502061024 61 3 0.0 0.0 0.00 0.00 0.00 58 1025.5
20260502060025 61 343 0.0 0.0 0.00 0.00 0.00 58 1025.2
20260502055020 58 0.0 0.0 0.00 0.00 0.00 61 1025.2
20260502054033 56 0.0 0.0 0.00 0.00 0.00 64 1025.5
20260502053023 54 0.0 0.0 0.00 0.00 0.00 67 1025.5
20260502052032 54 0.0 0.0 0.00 0.00 0.00 69 1025.4
20260502051035 49 0.0 0.0 0.00 0.00 0.00 79 1025.0
20260502050049 45 0.0 0.0 0.00 0.00 0.00 88 1024.9
20260502045057 42 0.0 0.0 0.00 0.00 0.00 91 1024.7
20260502044026 38 0.0 0.0 0.00 0.00 0.00 92 1024.6
20260502043113 37 0.0 0.0 0.00 0.00 0.00 92 1024.9
20260502042054 36 0.0 0.0 0.00 0.00 0.00 92 1024.9
20260502041036 36 0.0 0.0 0.00 0.00 0.00 93 1024.5
20260502040037 35 0.0 0.0 0.00 0.00 0.00 93 1024.5
20260502035030 35 0.0 0.0 0.00 0.00 0.00 93 1024.5